AP989 Weather Reports


time (UTC)temp
C
wind
direction
speed
KPH
gust
KPH
rain 1hr
cm
rain 24hr
cm
rain mn
cm
humidity
%
barometer
mb
20260503224004 17 259 14.5 24.1 0.00 0.00 0.00 28 1002.4
20260503223003 17 286 11.3 32.2 0.00 0.00 0.00 28 1002.4
20260503222004 17 264 9.7 29.0 0.00 0.00 0.00 29 1002.4
20260503221003 17 279 17.7 29.0 0.00 0.00 0.00 27 1002.4
20260503220004 17 268 17.7 33.8 0.00 0.00 0.00 26 1002.4
20260503215004 17 280 24.1 35.4 0.00 0.00 0.00 25 1002.4
20260503214004 17 279 24.1 37.0 0.00 0.00 0.00 30 1002.4
20260503213003 18 255 25.7 35.4 0.00 0.00 0.00 27 1002.4
20260503212007 18 284 16.1 38.6 0.00 0.00 0.00 28 1002.4
20260503210004 18 285 14.5 32.2 0.00 0.00 0.00 27 1002.4
20260503205003 18 277 22.5 33.8 0.00 0.00 0.00 28 1002.4
20260503204004 18 250 24.1 37.0 0.00 0.00 0.00 31 1003.0
20260503203004 18 294 19.3 32.2 0.00 0.00 0.00 30 1003.0
20260503202003 18 257 14.5 35.4 0.00 0.00 0.00 33 1003.0
20260503201004 18 265 33.8 41.8 0.00 0.00 0.00 34 1003.0
20260503200004 19 268 20.9 33.8 0.00 0.00 0.00 34 1003.0
20260503195004 18 291 20.9 38.6 0.00 0.00 0.00 32 1003.0
20260503194004 18 261 22.5 37.0 0.00 0.00 0.00 35 1003.0
20260503193004 18 278 19.3 38.6 0.00 0.00 0.00 36 1003.0
20260503191004 18 272 22.5 33.8 0.00 0.00 0.00 39 1003.0
20260503190004 17 293 16.1 32.2 0.00 0.00 0.00 36 1003.9
20260503185004 18 255 11.3 32.2 0.00 0.00 0.00 42 1003.9
20260503184004 18 307 16.1 37.0 0.00 0.00 0.00 37 1003.9
20260503183004 18 267 9.7 27.4 0.00 0.00 0.00 38 1003.9
20260503182005 17 269 19.3 29.0 0.00 0.00 0.00 40 1003.9
20260503180004 17 263 19.3 32.2 0.00 0.00 0.00 40 1003.9
20260503175004 17 276 22.5 35.4 0.00 0.00 0.00 43 1003.9
20260503174004 17 274 14.5 29.0 0.00 0.00 0.00 44 1003.9
20260503173004 17 303 20.9 32.2 0.00 0.00 0.00 43 1003.9
20260503172004 17 315 14.5 38.6 0.00 0.00 0.00 47 1003.9
20260503171004 17 293 14.5 32.2 0.00 0.00 0.00 44 1003.9
20260503151004 14 274 16.1 24.1 0.00 0.00 0.00 57 1004.4
20260503072004 8 201 8.0 11.3 0.00 0.00 0.00 80 1007.5
20260503071004 8 219 8.0 12.9 0.00 0.00 0.00 84 1007.5
20260503055004 11 251 9.7 19.3 0.00 0.00 0.00 69 1008.1
20260503054004 10 236 11.3 14.5 0.00 0.00 0.00 70 1008.1
20260503052004 11 249 9.7 14.5 0.00 0.00 0.00 67 1008.1
20260503051005 11 240 8.0 14.5 0.00 0.00 0.00 67 1008.1
20260503050004 12 231 11.3 19.3 0.00 0.00 0.00 64 1008.1
20260503044004 12 233 14.5 27.4 0.00 0.00 0.00 64 1008.1
20260503042004 11 215 14.5 20.9 0.00 0.00 0.00 60 1008.1
20260503041004 11 208 11.3 19.3 0.00 0.00 0.00 61 1008.1
20260503040004 10 218 11.3 25.7 0.00 0.00 0.00 62 1008.1
20260503034004 10 212 11.3 16.1 0.00 0.00 0.00 63 1009.0
20260503033004 10 227 11.3 16.1 0.00 0.00 0.00 60 1009.0
20260503032004 11 230 8.0 16.1 0.00 0.00 0.00 59 1009.0
20260503030004 10 188 8.0 11.3 0.00 0.00 0.00 54 1009.0
20260503025004 10 196 8.0 14.5 0.00 0.00 0.00 55 1009.0
20260503023004 10 175 8.0 11.3 0.00 0.00 0.00 53 1009.0
20260503022004 10 172 8.0 12.9 0.00 0.00 0.00 53 1009.0
20260503021004 10 181 8.0 11.3 0.00 0.00 0.00 52 1009.0
20260503020004 11 163 9.7 12.9 0.00 0.00 0.00 51 1009.1
20260503015004 11 177 8.0 12.9 0.00 0.00 0.00 50 1009.1
20260503013004 11 168 8.0 12.9 0.00 0.00 0.00 49 1009.1
20260503012004 12 183 8.0 12.9 0.00 0.00 0.00 49 1009.1
20260503005003 12 208 9.7 19.3 0.00 0.00 0.00 47 1009.3
20260503004003 13 224 9.7 19.3 0.00 0.00 0.00 46 1009.3
20260503003003 13 191 8.0 20.9 0.00 0.00 0.00 48 1009.8
20260503002003 13 205 6.4 20.9 0.00 0.00 0.00 50 1009.8
20260503001003 13 213 8.0 19.3 0.00 0.00 0.00 48 1009.8
20260503000003 13 237 8.0 16.1 0.00 0.00 0.00 50 1009.8
20260502235003 13 229 19.3 25.7 0.00 0.00 0.00 48 1010.7
20260502234003 13 242 16.1 29.0 0.00 0.00 0.00 47 1010.7
20260502233003 13 224 25.7 33.8 0.00 0.00 0.00 47 1010.7
20260502231003 14 214 17.7 29.0 0.00 0.00 0.00 46 1010.7
20260502230003 15 225 19.3 29.0 0.00 0.00 0.00 42 1010.7
20260502225003 14 227 16.1 32.2 0.00 0.00 0.00 45 1010.7